Location: Alafon
(8.4500°N, 4.2333°E)
Time: 08:13:37
(UTC+00:00)

N. Korean satellite - Pass Details

Date: 21 June 2021
Orbit: 451 x 497 km, 97.2° (Epoch: 27 July)

Event Time Altitude Azimuth Distance (km) Brightness Sun altitude
Rises 04:10:43 0° 30° (NNE) 2,562 11.2 -17.7°
Reaches altitude 10° 04:13:04 10° 44° (NE) 1,687 10.4 -17.2°
Maximum altitude 04:16:03 24° 100° (E) 1,057 8.9 -16.5°
Drops below altitude 10° 04:19:03 10° 155° (SSE) 1,695 9.3 -15.9°
Sets 04:21:24 0° 169° (S) 2,579 10.1 -15.4°
